OE7AOT-2 Weather Reports


Display with metric or nautical units.
time (UTC)temp
F
wind
direction
speed
MPH
gust
MPH
rain 1hr
in
rain 24hr
in
rain mn
in
humidity
%
barometer
mb
20260505223904 45 0 0.0 0.0 0.00 0.00 0.00 72 919.9
20260505223755 45 225 0.0 0.0 0.00 0.00 0.00 72 919.9
20260505223647 45 0 7.0 0.0 0.00 0.00 0.00 72 919.8
20260505223430 45 0 0.0 0.0 0.00 0.00 0.00 72 919.8
20260505223322 45 225 8.0 0.0 0.00 0.00 0.00 72 919.9
20260505223214 45 225 0.0 0.0 0.00 0.00 0.00 72 919.8
20260505223106 46 0 7.0 0.0 0.00 0.00 0.00 72 919.8
20260505222957 46 0 10.0 0.0 0.00 0.00 0.00 73 919.8
20260505222849 46 270 6.0 0.0 0.00 0.00 0.00 73 919.8
20260505222741 46 315 8.0 0.0 0.00 0.00 0.00 73 919.8
20260505222632 46 315 9.0 0.0 0.00 0.00 0.00 73 919.8
20260505222524 46 315 2.0 0.0 0.00 0.00 0.00 73 919.8
20260505222416 45 315 9.0 0.0 0.00 0.00 0.00 73 919.9
20260505222308 45 0 29.0 0.0 0.00 0.00 0.00 73 919.8
20260505222159 45 0 11.0 0.0 0.00 0.00 0.00 73 919.8
20260505222051 45 315 8.0 0.0 0.00 0.00 0.00 73 919.8
20260505221943 45 315 21.0 0.0 0.00 0.00 0.00 73 919.8
20260505221834 45 315 10.0 0.0 0.00 0.00 0.00 73 919.8
20260505221726 45 315 19.0 0.0 0.00 0.00 0.00 73 919.8
20260505221510 45 315 1.0 0.0 0.00 0.00 0.00 73 919.8
20260505221401 45 315 8.0 0.0 0.00 0.00 0.00 73 919.8
20260505221253 45 315 1.0 0.0 0.00 0.00 0.00 73 919.8
20260505221145 45 315 7.0 0.0 0.00 0.00 0.00 73 919.8
20260505221037 45 315 0.0 0.0 0.00 0.00 0.00 73 919.8
20260505220928 45 315 2.0 0.0 0.00 0.00 0.00 72 919.8
20260505220820 45 270 5.0 0.0 0.00 0.00 0.00 72 919.8
20260505220712 45 270 0.0 0.0 0.00 0.00 0.00 72 919.7
20260505220603 45 315 0.0 0.0 0.00 0.00 0.00 72 919.7
20260505220455 45 315 0.0 0.0 0.00 0.00 0.00 72 919.7
20260505220347 45 315 7.0 0.0 0.00 0.00 0.00 72 919.7
20260505220239 44 315 7.0 0.0 0.00 0.00 0.00 72 919.7
20260505220130 44 270 6.0 0.0 0.00 0.00 0.00 72 919.7
20260505220022 44 315 0.0 0.0 0.00 0.00 0.00 72 919.7
20260505215914 44 315 0.0 0.0 0.00 0.00 0.00 72 919.6
20260505215806 44 315 6.0 0.0 0.00 0.00 0.00 72 919.7
20260505215657 44 315 7.0 0.0 0.00 0.00 0.00 72 919.7
20260505215549 44 315 1.0 0.0 0.00 0.00 0.00 72 919.7
20260505215441 44 315 6.0 0.0 0.00 0.00 0.00 72 919.7
20260505215332 44 315 0.0 0.0 0.00 0.00 0.00 72 919.7
20260505215224 44 315 0.0 0.0 0.00 0.00 0.00 72 919.7
20260505215116 44 315 1.0 0.0 0.00 0.00 0.00 72 919.7
20260505215008 44 315 3.0 0.0 0.00 0.00 0.00 72 919.7
20260505214643 44 315 1.0 0.0 0.00 0.00 0.00 72 919.7
20260505214534 44 315 7.0 0.0 0.00 0.00 0.00 72 919.6
20260505214426 44 0 0.0 0.0 0.00 0.00 0.00 72 919.7
20260505214318 44 315 7.0 0.0 0.00 0.00 0.00 72 919.6
20260505214101 44 315 1.0 0.0 0.00 0.00 0.00 72 919.6
20260505213953 44 315 9.0 0.0 0.00 0.00 0.00 71 919.7
20260505213845 44 315 45.0 0.0 0.00 0.00 0.00 71 919.6
20260505213737 44 0 0.0 0.0 0.00 0.00 0.00 72 919.6
20260505213628 44 315 15.0 0.0 0.00 0.00 0.00 72 919.7
20260505213520 45 0 4.0 0.0 0.00 0.00 0.00 72 919.6
20260505213412 45 315 10.0 0.0 0.00 0.00 0.00 72 919.6
20260505213155 45 0 0.0 0.0 0.00 0.00 0.00 72 919.6
20260505213047 45 0 2.0 0.0 0.00 0.00 0.00 72 919.6
20260505212939 45 270 1.0 0.0 0.00 0.00 0.00 72 919.6
20260505212830 45 315 0.0 0.0 0.00 0.00 0.00 72 919.6
20260505212722 45 0 7.0 0.0 0.00 0.00 0.00 72 919.6
20260505212614 45 0 0.0 0.0 0.00 0.00 0.00 72 919.5
20260505212506 45 315 0.0 0.0 0.00 0.00 0.00 72 919.5
20260505212357 45 315 8.0 0.0 0.00 0.00 0.00 72 919.5
20260505212249 45 0 0.0 0.0 0.00 0.00 0.00 72 919.5
20260505212141 45 315 0.0 0.0 0.00 0.00 0.00 72 919.5
20260505212032 45 315 0.0 0.0 0.00 0.00 0.00 71 919.5
20260505211924 45 315 7.0 0.0 0.00 0.00 0.00 71 919.5
20260505211816 45 315 23.0 0.0 0.00 0.00 0.00 71 919.5
20260505211708 45 0 0.0 0.0 0.00 0.00 0.00 72 919.5
20260505211559 45 0 1.0 0.0 0.00 0.00 0.00 72 919.4
20260505211451 45 0 9.0 0.0 0.00 0.00 0.00 71 919.5
20260505211235 45 315 8.0 0.0 0.00 0.00 0.00 71 919.5
20260505211126 45 315 0.0 0.0 0.00 0.00 0.00 71 919.5
20260505211018 45 315 0.0 0.0 0.00 0.00 0.00 72 919.5
20260505210910 45 315 7.0 0.0 0.00 0.00 0.00 72 919.4
20260505210801 45 315 0.0 0.0 0.00 0.00 0.00 72 919.4
20260505210653 45 315 9.0 0.0 0.00 0.00 0.00 72 919.4
20260505210545 45 0 2.0 0.0 0.00 0.00 0.00 72 919.5
20260505210437 46 315 0.0 0.0 0.00 0.00 0.00 72 919.4
20260505210328 46 315 0.0 0.0 0.00 0.00 0.00 72 919.4
20260505210220 46 315 1.0 0.0 0.00 0.00 0.00 72 919.4
20260505210112 46 0 8.0 0.0 0.00 0.00 0.00 72 919.4
20260505210004 46 315 6.0 0.0 0.00 0.00 0.00 72 919.4
20260505205855 46 315 1.0 0.0 0.00 0.00 0.00 72 919.4
20260505205639 46 315 8.0 0.0 0.00 0.00 0.00 72 919.4
20260505205530 46 0 2.0 0.0 0.00 0.00 0.00 72 919.4
20260505205422 46 0 0.0 0.0 0.00 0.00 0.00 72 919.4
20260505205314 46 0 1.0 0.0 0.00 0.00 0.00 72 919.3
20260505205206 46 315 13.0 0.0 0.00 0.00 0.00 72 919.3
20260505205057 46 315 0.0 0.0 0.00 0.00 0.00 72 919.4
20260505204949 46 315 0.0 0.0 0.00 0.00 0.00 72 919.3
20260505204841 46 315 0.0 0.0 0.00 0.00 0.00 72 919.3
20260505204732 46 315 8.0 0.0 0.00 0.00 0.00 72 919.3
20260505204624 46 0 2.0 0.0 0.00 0.00 0.00 72 919.3
20260505204516 46 315 13.0 0.0 0.00 0.00 0.00 72 919.3
20260505204408 46 0 17.0 0.0 0.00 0.00 0.00 72 919.3
20260505204259 46 315 4.0 0.0 0.00 0.00 0.00 72 919.2
20260505204151 46 315 7.0 0.0 0.00 0.00 0.00 72 919.2
20260505204043 46 315 9.0 0.0 0.00 0.00 0.00 72 919.2
20260505203934 46 0 1.0 0.0 0.00 0.00 0.00 72 919.1
20260505203826 46 315 2.0 0.0 0.00 0.00 0.00 72 919.1
20260505203718 46 270 5.0 0.0 0.00 0.00 0.00 72 919.1
20260505203610 46 270 1.0 0.0 0.00 0.00 0.00 72 919.1
20260505203501 46 315 16.0 0.0 0.00 0.00 0.00 72 919.1
20260505203353 46 315 9.0 0.0 0.00 0.00 0.00 72 919.1
20260505203245 46 315 9.0 0.0 0.00 0.00 0.00 72 919.1
20260505203137 46 0 0.0 0.0 0.00 0.00 0.00 72 919.2
20260505202920 46 270 1.0 0.0 0.00 0.00 0.00 71 919.1
20260505202812 46 270 0.0 0.0 0.00 0.00 0.00 71 919.0
20260505202703 46 0 0.0 0.0 0.00 0.00 0.00 71 919.0
20260505202555 46 0 0.0 0.0 0.00 0.00 0.00 71 919.0
20260505202447 46 315 0.0 0.0 0.00 0.00 0.00 71 919.0
20260505202339 46 315 0.0 0.0 0.00 0.00 0.00 71 919.0
20260505202230 46 315 3.0 0.0 0.00 0.00 0.00 71 918.9
20260505202122 46 315 32.0 0.0 0.00 0.00 0.00 71 919.0
20260505202014 46 315 2.0 0.0 0.00 0.00 0.00 72 919.0
20260505201906 47 315 1.0 0.0 0.00 0.00 0.00 72 919.0
20260505201757 47 315 22.0 0.0 0.00 0.00 0.00 72 919.0
20260505201649 47 315 1.0 0.0 0.00 0.00 0.00 72 919.0
20260505201541 47 0 0.0 0.0 0.00 0.00 0.00 72 919.0
20260505201432 47 315 1.0 0.0 0.00 0.00 0.00 72 919.0
20260505201324 47 315 9.0 0.0 0.00 0.00 0.00 72 919.0
20260505201216 47 0 14.0 0.0 0.00 0.00 0.00 72 918.9
20260505201108 47 315 1.0 0.0 0.00 0.00 0.00 72 918.9
20260505200959 47 315 5.0 0.0 0.00 0.00 0.00 72 918.9
20260505200851 47 315 0.0 0.0 0.00 0.00 0.00 72 918.9
20260505200743 47 315 0.0 0.0 0.00 0.00 0.00 72 918.9
20260505200634 47 315 0.0 0.0 0.00 0.00 0.00 72 918.9
20260505200526 47 315 2.0 0.0 0.00 0.00 0.00 72 918.9
20260505200418 47 315 3.0 0.0 0.00 0.00 0.00 71 918.9
20260505200310 47 315 3.0 0.0 0.00 0.00 0.00 72 918.9
20260505200201 47 0 14.0 0.0 0.00 0.00 0.00 72 918.9
20260505200053 47 0 0.0 0.0 0.00 0.00 0.00 72 918.9
20260505195945 47 315 0.0 0.0 0.00 0.00 0.00 72 918.9
20260505195837 47 0 0.0 0.0 0.00 0.00 0.00 71 918.9
20260505195728 47 0 11.0 0.0 0.00 0.00 0.00 71 918.9
20260505195620 47 0 1.0 0.0 0.00 0.00 0.00 71 918.9
20260505195512 47 0 1.0 0.0 0.00 0.00 0.00 71 918.8
20260505195403 47 270 3.0 0.0 0.00 0.00 0.00 71 918.8
20260505195255 47 315 2.0 0.0 0.00 0.00 0.00 71 918.8
20260505195147 48 315 0.0 0.0 0.00 0.00 0.00 71 918.7
20260505195039 48 315 0.0 0.0 0.00 0.00 0.00 71 918.7
20260505194930 48 315 0.0 0.0 0.00 0.00 0.00 71 918.7
20260505194822 48 315 7.0 0.0 0.00 0.00 0.00 71 918.7
20260505194714 48 315 0.0 0.0 0.00 0.00 0.00 71 918.7
20260505194606 48 315 1.0 0.0 0.00 0.00 0.00 71 918.7
20260505194457 48 0 0.0 0.0 0.00 0.00 0.00 71 918.7
20260505194349 48 315 0.0 0.0 0.00 0.00 0.00 71 918.7
20260505194241 48 315 8.0 0.0 0.00 0.00 0.00 71 918.7
20260505194024 48 315 9.0 0.0 0.00 0.00 0.00 71 918.6
20260505193916 48 315 8.0 0.0 0.00 0.00 0.00 71 918.6
20260505193808 48 315 11.0 0.0 0.00 0.00 0.00 71 918.5
20260505193659 49 315 0.0 0.0 0.00 0.00 0.00 71 918.5
20260505193551 49 315 8.0 0.0 0.00 0.00 0.00 71 918.5
20260505193443 49 0 1.0 0.0 0.00 0.00 0.00 71 918.4
20260505193334 49 315 13.0 0.0 0.00 0.00 0.00 71 918.4
20260505193226 49 0 3.0 0.0 0.00 0.00 0.00 71 918.4
20260505193118 49 270 3.0 0.0 0.00 0.00 0.00 71 918.4
20260505193010 49 315 0.0 0.0 0.00 0.00 0.00 71 918.4
20260505192901 49 315 0.0 0.0 0.00 0.00 0.00 71 918.4
20260505192753 49 315 0.0 0.0 0.00 0.00 0.00 71 918.4
20260505192645 49 315 1.0 0.0 0.00 0.00 0.00 71 918.3
20260505192537 49 0 1.0 0.0 0.00 0.00 0.00 71 918.3
20260505192428 49 0 1.0 0.0 0.00 0.00 0.00 71 918.3
20260505192320 49 315 1.0 0.0 0.00 0.00 0.00 70 918.4
20260505192212 49 315 1.0 0.0 0.00 0.00 0.00 70 918.4
20260505192103 50 315 0.0 0.0 0.00 0.00 0.00 70 918.3
20260505191955 50 45 0.0 0.0 0.00 0.00 0.00 70 918.3
20260505191847 50 315 0.0 0.0 0.00 0.00 0.00 70 918.3
20260505191739 50 315 0.0 0.0 0.00 0.00 0.00 70 918.3
20260505191630 50 315 21.0 0.0 0.00 0.00 0.00 70 918.3
20260505191522 51 0 16.0 0.0 0.00 0.00 0.00 70 918.2
20260505191414 51 0 0.0 0.0 0.00 0.00 0.00 70 918.2
20260505191305 51 0 0.0 0.0 0.00 0.00 0.00 70 918.2
20260505191157 51 315 0.0 0.0 0.00 0.00 0.00 70 918.2
20260505191050 51 315 6.0 0.0 0.00 0.00 0.00 70 918.2
20260505190941 51 315 0.0 0.0 0.00 0.00 0.00 70 918.1
20260505190832 51 315 0.0 0.0 0.00 0.00 0.00 70 918.1
20260505190724 51 315 0.0 0.0 0.00 0.00 0.00 71 918.1
20260505190616 52 315 1.0 0.0 0.00 0.00 0.00 71 918.1
20260505190508 52 315 8.0 0.0 0.00 0.00 0.00 71 918.1
20260505190359 52 315 1.0 0.0 0.00 0.00 0.00 71 918.1
20260505190251 52 0 2.0 0.0 0.00 0.00 0.00 71 918.1
20260505190143 52 315 0.0 0.0 0.00 0.00 0.00 71 918.1
20260505190034 52 0 0.0 0.0 0.00 0.00 0.00 71 918.1
20260505185926 53 0 0.0 0.0 0.00 0.00 0.00 71 918.0
20260505185818 53 315 1.0 0.0 0.00 0.00 0.00 72 918.0
20260505185710 53 270 1.0 0.0 0.00 0.00 0.00 72 918.0
20260505185601 53 315 8.0 0.0 0.00 0.00 0.00 72 918.0
20260505185453 53 225 6.0 0.0 0.00 0.00 0.00 71 918.0
20260505185345 53 45 6.0 0.0 0.00 0.00 0.00 71 917.9
20260505185237 53 180 9.0 0.0 0.00 0.00 0.00 71 917.9
20260505185128 53 270 2.0 0.0 0.00 0.00 0.00 71 917.9
20260505185020 53 270 0.0 0.0 0.00 0.00 0.00 71 917.9
20260505184912 53 315 0.0 0.0 0.00 0.00 0.00 71 917.9
20260505184803 54 315 0.0 0.0 0.00 0.00 0.00 71 917.9
20260505184655 54 225 0.0 0.0 0.00 0.00 0.00 71 917.9
20260505184547 54 0 0.0 0.0 0.00 0.00 0.00 71 917.9
20260505184439 54 315 0.0 0.0 0.00 0.00 0.00 71 917.9
20260505184330 54 45 13.0 0.0 0.00 0.00 0.00 71 917.9
20260505184222 54 225 0.0 0.0 0.00 0.00 0.00 71 917.9
20260505184114 55 0 0.0 0.0 0.00 0.00 0.00 71 917.9
20260505184005 55 0 3.0 0.0 0.00 0.00 0.00 71 917.9
20260505183857 55 225 0.0 0.0 0.00 0.00 0.00 71 917.8
20260505183749 55 315 0.0 0.0 0.00 0.00 0.00 71 917.8
20260505183641 55 45 1.0 0.0 0.00 0.00 0.00 71 917.8
20260505183532 55 270 0.0 0.0 0.00 0.00 0.00 71 917.7
20260505183424 56 0 1.0 0.0 0.00 0.00 0.00 71 917.7
20260505183316 56 45 12.0 0.0 0.00 0.00 0.00 71 917.6
20260505183208 56 270 0.0 0.0 0.00 0.00 0.00 71 917.6
20260505182951 56 315 0.0 0.0 0.00 0.00 0.00 72 917.6
20260505182843 57 0 0.0 0.0 0.00 0.00 0.00 72 917.7
20260505182734 57 180 12.0 0.0 0.00 0.00 0.00 72 917.6
20260505182626 57 135 10.0 0.0 0.00 0.00 0.00 71 917.6
20260505182517 57 180 9.0 0.0 0.00 0.00 0.00 71 917.6
20260505182409 57 225 1.0 0.0 0.00 0.00 0.00 71 917.6
20260505182301 57 315 1.0 0.0 0.00 0.00 0.00 70 917.6
20260505182152 57 270 0.0 0.0 0.00 0.00 0.00 71 917.6
20260505182043 58 315 1.0 0.0 0.00 0.00 0.00 71 917.6
20260505181935 58 270 7.0 0.0 0.00 0.00 0.00 71 917.5
20260505181827 58 180 1.0 0.0 0.00 0.00 0.00 71 917.5
20260505181718 58 225 7.0 0.0 0.00 0.00 0.00 71 917.5
20260505181610 59 135 0.0 0.0 0.00 0.00 0.00 71 917.5
20260505181501 59 90 1.0 0.0 0.00 0.00 0.00 71 917.5
20260505181353 59 135 8.0 0.0 0.00 0.00 0.00 71 917.5
20260505181244 59 225 3.0 0.0 0.00 0.00 0.00 71 917.5
20260505181136 60 135 15.0 0.0 0.00 0.00 0.00 71 917.5
20260505181027 60 135 4.0 0.0 0.00 0.00 0.00 71 917.4
20260505180919 60 135 7.0 0.0 0.00 0.00 0.00 72 917.4
20260505180811 60 90 17.0 0.0 0.00 0.00 0.00 72 917.4
20260505180702 61 180 12.0 0.0 0.00 0.00 0.00 72 917.4
20260505180554 61 225 8.0 0.0 0.00 0.00 0.00 72 917.3
20260505180445 61 225 17.0 0.0 0.00 0.00 0.00 72 917.3
20260505180337 61 135 7.0 0.0 0.00 0.00 0.00 72 917.4
20260505180229 61 135 18.0 0.0 0.00 0.00 0.00 72 917.3
20260505180120 61 180 40.0 0.0 0.00 0.00 0.00 72 917.3
20260505180011 62 180 10.0 0.0 0.00 0.00 0.00 73 917.3
20260505175903 62 135 36.0 0.0 0.00 0.00 0.00 73 917.3
20260505175755 62 180 16.0 0.0 0.00 0.00 0.00 73 917.2
20260505175646 62 180 20.0 0.0 0.00 0.00 0.00 73 917.2
20260505175538 62 225 1.0 0.0 0.00 0.00 0.00 73 917.3
20260505175429 62 270 10.0 0.0 0.00 0.00 0.00 73 917.2
20260505175321 62 180 32.0 0.0 0.00 0.00 0.00 73 917.2
20260505175212 62 180 15.0 0.0 0.00 0.00 0.00 73 917.2
20260505175104 62 90 50.0 0.0 0.00 0.00 0.00 73 917.2
20260505174956 62 180 17.0 0.0 0.00 0.00 0.00 73 917.2
20260505174847 62 135 48.0 0.0 0.00 0.00 0.00 73 917.2
20260505174739 62 90 20.0 0.0 0.00 0.00 0.00 73 917.2
20260505174630 63 0 17.0 0.0 0.00 0.00 0.00 73 917.2
20260505174522 63 90 4.0 0.0 0.00 0.00 0.00 73 917.2
20260505174413 63 90 26.0 0.0 0.00 0.00 0.00 73 917.3
20260505174305 63 180 48.0 0.0 0.00 0.00 0.00 73 917.3
20260505174156 63 90 38.0 0.0 0.00 0.00 0.00 72 917.3
20260505174048 63 180 23.0 0.0 0.00 0.00 0.00 72 917.2
20260505173940 63 180 35.0 0.0 0.00 0.00 0.00 72 917.2
20260505173831 63 225 35.0 0.0 0.00 0.00 0.00 72 917.3
20260505173723 63 180 15.0 0.0 0.00 0.00 0.00 72 917.2
20260505173614 63 180 24.0 0.0 0.00 0.00 0.00 72 917.2
20260505173506 63 180 21.0 0.0 0.00 0.00 0.00 72 917.1
20260505173357 63 180 5.0 0.0 0.00 0.00 0.00 72 917.2
20260505173249 63 0 9.0 0.0 0.00 0.00 0.00 72 917.2
20260505173141 63 315 20.0 0.0 0.00 0.00 0.00 72 917.2
20260505173032 63 135 42.0 0.0 0.00 0.00 0.00 72 917.3
20260505172924 63 180 37.0 0.0 0.00 0.00 0.00 72 917.2
20260505172815 64 225 7.0 0.0 0.00 0.00 0.00 71 917.1
20260505172707 64 180 7.0 0.0 0.00 0.00 0.00 71 917.2
20260505172558 64 225 21.0 0.0 0.00 0.00 0.00 71 917.2
20260505172450 64 180 23.0 0.0 0.00 0.00 0.00 71 917.1
20260505172341 64 180 22.0 0.0 0.00 0.00 0.00 71 917.2
20260505172233 64 180 12.0 0.0 0.00 0.00 0.00 71 917.2
20260505172125 64 135 19.0 0.0 0.00 0.00 0.00 71 917.2
20260505172016 65 180 34.0 0.0 0.00 0.00 0.00 71 917.2
20260505171908 65 225 33.0 0.0 0.00 0.00 0.00 71 917.2
20260505171759 65 90 22.0 0.0 0.00 0.00 0.00 71 917.2
20260505171651 65 225 47.0 0.0 0.00 0.00 0.00 71 917.2
20260505171542 65 180 39.0 0.0 0.00 0.00 0.00 71 917.2
20260505171434 65 90 48.0 0.0 0.00 0.00 0.00 70 917.2
20260505171325 65 180 15.0 0.0 0.00 0.00 0.00 70 917.2
20260505171217 65 180 51.0 0.0 0.00 0.00 0.00 70 917.2
20260505171109 65 180 37.0 0.0 0.00 0.00 0.00 70 917.2
20260505171000 66 90 40.0 0.0 0.00 0.00 0.00 70 917.2
20260505170852 66 135 44.0 0.0 0.00 0.00 0.00 69 917.2
20260505170743 66 180 54.0 0.0 0.00 0.00 0.00 69 917.1
20260505170635 66 180 25.0 0.0 0.00 0.00 0.00 69 917.1
20260505170526 67 225 15.0 0.0 0.00 0.00 0.00 68 917.1
20260505170418 67 225 15.0 0.0 0.00 0.00 0.00 68 917.1
20260505170309 67 135 27.0 0.0 0.00 0.00 0.00 68 917.1
20260505170201 68 0 61.0 0.0 0.00 0.00 0.00 67 917.0
20260505170053 68 225 40.0 0.0 0.00 0.00 0.00 66 917.1
20260505165944 69 225 26.0 0.0 0.00 0.00 0.00 66 917.1
20260505165836 69 225 41.0 0.0 0.00 0.00 0.00 65 917.0
20260505165727 70 225 21.0 0.0 0.00 0.00 0.00 65 917.0
20260505165619 70 180 30.0 0.0 0.00 0.00 0.00 64 917.0
20260505165510 71 225 17.0 0.0 0.00 0.00 0.00 63 917.0
20260505165402 72 135 19.0 0.0 0.00 0.00 0.00 63 917.0
20260505165253 73 225 19.0 0.0 0.00 0.00 0.00 62 917.0
20260505165145 74 180 40.0 0.0 0.00 0.00 0.00 61 917.0
20260505165037 75 180 43.0 0.0 0.00 0.00 0.00 60 917.0
20260505164928 76 180 70.0 0.0 0.00 0.00 0.00 59 916.9
20260505164820 78 225 29.0 0.0 0.00 0.00 0.00 58 917.0
20260505164711 79 225 14.0 0.0 0.00 0.00 0.00 57 916.9
20260505164603 81 225 16.0 0.0 0.00 0.00 0.00 56 916.9
20260505164454 83 90 15.0 0.0 0.00 0.00 0.00 54 916.9
20260505164346 85 90 31.0 0.0 0.00 0.00 0.00 53 916.8
20260505164237 88 225 49.0 0.0 0.00 0.00 0.00 51 916.8
20260505164129 91 225 35.0 0.0 0.00 0.00 0.00 50 916.9
20260505164021 95 225 23.0 0.0 0.00 0.00 0.00 48 916.8
20260505163912 10 45 26.0 0.0 0.00 0.00 0.00 46 916.8
20260505163804 102 225 35.0 0.0 0.00 0.00 0.00 45 916.8
20260505163655 102 180 35.0 0.0 0.00 0.00 0.00 45 916.8
20260505163547 102 180 32.0 0.0 0.00 0.00 0.00 46 916.7
20260505163438 102 90 9.0 0.0 0.00 0.00 0.00 46 916.7
20260505163330 102 180 60.0 0.0 0.00 0.00 0.00 45 916.7
20260505163222 102 90 45.0 0.0 0.00 0.00 0.00 45 916.7
20260505163113 102 180 31.0 0.0 0.00 0.00 0.00 46 916.7
20260505163005 102 180 0.0 0.0 0.00 0.00 0.00 47 916.8
20260505162856 102 0 26.0 0.0 0.00 0.00 0.00 47 916.8
20260505162748 101 225 10.0 0.0 0.00 0.00 0.00 46 916.8
20260505162639 101 45 32.0 0.0 0.00 0.00 0.00 46 916.9
20260505162531 101 180 45.0 0.0 0.00 0.00 0.00 47 916.8
20260505162422 100 180 26.0 0.0 0.00 0.00 0.00 47 916.8
20260505162314 10 225 24.0 0.0 0.00 0.00 0.00 47 916.9
20260505162206 99 180 26.0 0.0 0.00 0.00 0.00 48 916.9
20260505162057 99 180 23.0 0.0 0.00 0.00 0.00 48 916.9
20260505161949 98 90 31.0 0.0 0.00 0.00 0.00 49 916.9
20260505161840 97 180 38.0 0.0 0.00 0.00 0.00 50 917.0
20260505161732 96 225 15.0 0.0 0.00 0.00 0.00 51 917.0
20260505161623 94 180 18.0 0.0 0.00 0.00 0.00 52 917.0
20260505161515 91 225 36.0 0.0 0.00 0.00 0.00 54 917.1
20260505161407 88 180 43.0 0.0 0.00 0.00 0.00 56 917.2
20260505161258 84 180 27.0 0.0 0.00 0.00 0.00 58 917.3
20260505161150 81 180 26.0 0.0 0.00 0.00 0.00 60 917.3
20260505161041 82 225 40.0 0.0 0.00 0.00 0.00 59 917.3
20260505160933 84 180 34.0 0.0 0.00 0.00 0.00 59 917.4
20260505160824 85 180 25.0 0.0 0.00 0.00 0.00 58 917.4
20260505160716 87 225 27.0 0.0 0.00 0.00 0.00 57 917.3
20260505160607 87 225 27.0 0.0 0.00 0.00 0.00 57 917.4
20260505160459 87 180 25.0 0.0 0.00 0.00 0.00 57 917.4
20260505160351 89 180 27.0 0.0 0.00 0.00 0.00 57 917.4
20260505160242 90 225 20.0 0.0 0.00 0.00 0.00 57 917.4
20260505160134 92 225 24.0 0.0 0.00 0.00 0.00 56 917.4
20260505153303 73 225 14.0 0.0 0.00 0.00 0.00 68 917.9
20260505153154 73 225 24.0 0.0 0.00 0.00 0.00 68 917.8
20260505153046 74 180 12.0 0.0 0.00 0.00 0.00 68 917.8
20260505152937 74 180 0.0 0.0 0.00 0.00 0.00 68 917.8
20260505152829 74 315 3.0 0.0 0.00 0.00 0.00 68 917.7
20260505152721 74 270 0.0 0.0 0.00 0.00 0.00 67 917.8
20260505152612 75 135 7.0 0.0 0.00 0.00 0.00 67 917.8
20260505152504 75 180 49.0 0.0 0.00 0.00 0.00 66 917.8
20260505152355 75 225 20.0 0.0 0.00 0.00 0.00 66 917.9
20260505152247 76 135 25.0 0.0 0.00 0.00 0.00 66 917.9
20260505152138 76 180 30.0 0.0 0.00 0.00 0.00 66 917.8
20260505152030 77 180 31.0 0.0 0.00 0.00 0.00 66 917.8
20260505151921 78 225 19.0 0.0 0.00 0.00 0.00 66 917.7
20260505151813 78 180 17.0 0.0 0.00 0.00 0.00 66 917.8
20260505151705 79 180 20.0 0.0 0.00 0.00 0.00 67 917.8
20260505151556 78 135 21.0 0.0 0.00 0.00 0.00 67 917.8
20260505151448 75 180 30.0 0.0 0.00 0.00 0.00 68 917.9
20260505151339 73 180 24.0 0.0 0.00 0.00 0.00 68 917.9
20260505151231 71 90 28.0 0.0 0.00 0.00 0.00 68 917.9
20260505151122 71 225 26.0 0.0 0.00 0.00 0.00 69 917.9
20260505151014 70 180 25.0 0.0 0.00 0.00 0.00 68 917.8
20260505150905 70 135 40.0 0.0 0.00 0.00 0.00 68 917.8
20260505150757 70 180 17.0 0.0 0.00 0.00 0.00 68 917.9
20260505150649 70 225 25.0 0.0 0.00 0.00 0.00 68 917.9
20260505150540 70 90 20.0 0.0 0.00 0.00 0.00 68 917.8
20260505150432 70 135 26.0 0.0 0.00 0.00 0.00 68 917.8
20260505150323 70 180 28.0 0.0 0.00 0.00 0.00 68 917.8
20260505150215 70 225 14.0 0.0 0.00 0.00 0.00 69 917.8
20260505150107 70 180 49.0 0.0 0.00 0.00 0.00 69 917.9
20260505140621 75 225 26.0 0.0 0.00 0.00 0.00 68 917.4
20260505140513 75 90 30.0 0.0 0.00 0.00 0.00 68 917.4
20260505140404 75 225 22.0 0.0 0.00 0.00 0.00 68 917.4
20260505140256 75 180 48.0 0.0 0.00 0.00 0.00 68 917.4
20260505140147 75 90 60.0 0.0 0.00 0.00 0.00 68 917.4
20260505130228 89 180 75.0 0.0 0.00 0.00 0.00 57 917.4
20260505130120 89 90 37.0 0.0 0.00 0.00 0.00 58 917.3
20260505124956 80 180 58.0 0.0 0.00 0.00 0.00 64 917.4
20260505124847 79 225 38.0 0.0 0.00 0.00 0.00 65 917.4
20260505124739 79 180 24.0 0.0 0.00 0.00 0.00 65 917.4
20260505124630 78 180 46.0 0.0 0.00 0.00 0.00 65 917.4
20260505124522 78 180 46.0 0.0 0.00 0.00 0.00 65 917.5
20260505124413 77 180 55.0 0.0 0.00 0.00 0.00 65 917.5
20260505124305 77 90 33.0 0.0 0.00 0.00 0.00 66 917.5
20260505124157 77 225 47.0 0.0 0.00 0.00 0.00 66 917.6
20260505124048 76 225 60.0 0.0 0.00 0.00 0.00 65 917.6
20260505123940 76 180 47.0 0.0 0.00 0.00 0.00 65 917.6
20260505123831 76 225 46.0 0.0 0.00 0.00 0.00 65 917.5
20260505123723 76 180 40.0 0.0 0.00 0.00 0.00 65 917.6
20260505123614 77 180 104.0 0.0 0.00 0.00 0.00 65 917.6
20260505123506 77 180 46.0 0.0 0.00 0.00 0.00 65 917.6
20260505123357 77 180 80.0 0.0 0.00 0.00 0.00 65 917.5
20260505123249 77 180 45.0 0.0 0.00 0.00 0.00 65 917.5
20260505123141 77 180 47.0 0.0 0.00 0.00 0.00 65 917.5
20260505123032 78 135 29.0 0.0 0.00 0.00 0.00 64 917.5
20260505122924 78 180 10.0 0.0 0.00 0.00 0.00 64 917.5
20260505122815 79 315 33.0 0.0 0.00 0.00 0.00 63 917.5
20260505122707 80 180 48.0 0.0 0.00 0.00 0.00 63 917.5
20260505122558 80 180 47.0 0.0 0.00 0.00 0.00 63 917.5
20260505122450 81 180 23.0 0.0 0.00 0.00 0.00 63 917.3
20260505122341 82 225 18.0 0.0 0.00 0.00 0.00 63 917.3
20260505122233 83 90 6.0 0.0 0.00 0.00 0.00 62 917.3
20260505122125 84 180 10.0 0.0 0.00 0.00 0.00 61 917.3
20260505122016 85 225 56.0 0.0 0.00 0.00 0.00 60 917.3
20260505121908 86 90 47.0 0.0 0.00 0.00 0.00 60 917.2
20260505121759 88 180 80.0 0.0 0.00 0.00 0.00 59 917.3
20260505121651 89 180 53.0 0.0 0.00 0.00 0.00 59 917.2
20260505121542 90 135 14.0 0.0 0.00 0.00 0.00 58 917.2
20260505121434 91 135 19.0 0.0 0.00 0.00 0.00 58 917.2
20260505121325 92 135 29.0 0.0 0.00 0.00 0.00 57 917.2
20260505121217 93 90 62.0 0.0 0.00 0.00 0.00 57 917.2
20260505121109 94 315 26.0 0.0 0.00 0.00 0.00 57 917.1
20260505121000 93 270 52.0 0.0 0.00 0.00 0.00 58 917.2
20260505120852 91 180 25.0 0.0 0.00 0.00 0.00 59 917.3
20260505120743 89 90 74.0 0.0 0.00 0.00 0.00 60 917.3
20260505120635 88 90 111.0 0.0 0.00 0.00 0.00 61 917.1
20260505120526 88 225 42.0 0.0 0.00 0.00 0.00 62 917.1
20260505120418 87 135 42.0 0.0 0.00 0.00 0.00 63 917.2
20260505120310 87 90 1.0 0.0 0.00 0.00 0.00 63 917.3
20260505120201 86 0 11.0 0.0 0.00 0.00 0.00 63 917.3
20260505120053 86 315 31.0 0.0 0.00 0.00 0.00 63 917.2
20260505115944 85 90 19.0 0.0 0.00 0.00 0.00 63 917.3
20260505115836 85 0 66.0 0.0 0.00 0.00 0.00 63 917.3
20260505115727 85 45 19.0 0.0 0.00 0.00 0.00 63 917.2
20260505115619 85 0 15.0 0.0 0.00 0.00 0.00 64 917.3
20260505115510 85 180 9.0 0.0 0.00 0.00 0.00 64 917.3
20260505115402 85 225 17.0 0.0 0.00 0.00 0.00 63 917.2
20260505115254 86 45 3.0 0.0 0.00 0.00 0.00 63 917.3
20260505115145 86 270 24.0 0.0 0.00 0.00 0.00 62 917.2
20260505115037 86 180 40.0 0.0 0.00 0.00 0.00 61 917.2
20260505114928 87 180 16.0 0.0 0.00 0.00 0.00 61 917.2
20260505114820 87 225 59.0 0.0 0.00 0.00 0.00 61 917.2
20260505114711 88 180 2.0 0.0 0.00 0.00 0.00 61 917.3
20260505114603 89 180 33.0 0.0 0.00 0.00 0.00 60 917.3
20260505114454 89 135 2.0 0.0 0.00 0.00 0.00 60 917.3
20260505114346 90 0 17.0 0.0 0.00 0.00 0.00 59 917.3
20260505114238 91 270 23.0 0.0 0.00 0.00 0.00 57 917.3
20260505114129 92 180 10.0 0.0 0.00 0.00 0.00 56 917.4
20260505114021 93 135 70.0 0.0 0.00 0.00 0.00 54 917.3
20260505113912 95 180 45.0 0.0 0.00 0.00 0.00 54 917.2
20260505113804 97 180 32.0 0.0 0.00 0.00 0.00 54 917.1
20260505113655 98 180 29.0 0.0 0.00 0.00 0.00 53 917.1
20260505113547 10 180 49.0 0.0 0.00 0.00 0.00 53 917.2
20260505113439 102 180 85.0 0.0 0.00 0.00 0.00 53 917.1
20260505113330 103 90 14.0 0.0 0.00 0.00 0.00 53 917.0
20260505113222 105 315 3.0 0.0 0.00 0.00 0.00 51 917.1
20260505113113 107 270 36.0 0.0 0.00 0.00 0.00 49 917.1
20260505113005 109 45 29.0 0.0 0.00 0.00 0.00 49 917.2
20260505112856 112 315 3.0 0.0 0.00 0.00 0.00 48 917.1
20260505112748 115 270 40.0 0.0 0.00 0.00 0.00 47 917.0
20260505112639 117 270 60.0 0.0 0.00 0.00 0.00 45 917.0
20260505112531 119 0 20.0 0.0 0.00 0.00 0.00 45 917.0
20260505112423 120 315 23.0 0.0 0.00 0.00 0.00 43 917.1
20260505112314 120 0 51.0 0.0 0.00 0.00 0.00 43 917.1
20260505112206 121 0 57.0 0.0 0.00 0.00 0.00 42 917.1
20260505112057 120 135 55.0 0.0 0.00 0.00 0.00 42 917.2
20260505111949 120 135 15.0 0.0 0.00 0.00 0.00 43 917.2
20260505111840 120 180 23.0 0.0 0.00 0.00 0.00 44 917.1
20260505111732 120 225 74.0 0.0 0.00 0.00 0.00 44 917.2
20260505111623 120 180 91.0 0.0 0.00 0.00 0.00 45 917.2
20260505111515 120 90 54.0 0.0 0.00 0.00 0.00 46 917.1
20260505111407 120 225 11.0 0.0 0.00 0.00 0.00 47 917.2
20260505111258 120 45 11.0 0.0 0.00 0.00 0.00 48 917.2
20260505111150 119 135 14.0 0.0 0.00 0.00 0.00 48 917.2
20260505111041 118 180 9.0 0.0 0.00 0.00 0.00 48 917.2
20260505110933 118 225 13.0 0.0 0.00 0.00 0.00 48 917.3
20260505110824 117 270 5.0 0.0 0.00 0.00 0.00 49 917.3
20260505110716 116 225 18.0 0.0 0.00 0.00 0.00 49 917.3
20260505110608 116 135 18.0 0.0 0.00 0.00 0.00 50 917.3
20260505110459 116 135 7.0 0.0 0.00 0.00 0.00 50 917.2
20260505110351 115 225 8.0 0.0 0.00 0.00 0.00 51 917.2
20260505110242 114 225 54.0 0.0 0.00 0.00 0.00 51 917.2
20260505110134 114 315 37.0 0.0 0.00 0.00 0.00 51 917.2
20260505102138 103 270 16.0 0.0 0.00 0.00 0.00 62 918.0
20260505102030 103 45 27.0 0.0 0.00 0.00 0.00 62 917.9
20260505101921 103 0 8.0 0.0 0.00 0.00 0.00 63 917.9
20260505101813 103 0 32.0 0.0 0.00 0.00 0.00 62 917.9
20260505101705 103 315 49.0 0.0 0.00 0.00 0.00 62 917.9
20260505101556 103 315 23.0 0.0 0.00 0.00 0.00 62 917.9
20260505101448 102 315 17.0 0.0 0.00 0.00 0.00 63 917.9
20260505101339 102 0 29.0 0.0 0.00 0.00 0.00 63 918.0
20260505101232 101 0 15.0 0.0 0.00 0.00 0.00 64 918.0
20260505101122 10 90 22.0 0.0 0.00 0.00 0.00 64 918.1
20260505101014 98 90 13.0 0.0 0.00 0.00 0.00 65 918.0
20260505100905 97 180 7.0 0.0 0.00 0.00 0.00 65 918.1
20260505100757 96 45 9.0 0.0 0.00 0.00 0.00 65 918.1
20260505100649 95 180 14.0 0.0 0.00 0.00 0.00 64 918.0
20260505100541 95 225 9.0 0.0 0.00 0.00 0.00 64 918.1
20260505100432 94 180 24.0 0.0 0.00 0.00 0.00 64 918.1
20260505100323 94 180 29.0 0.0 0.00 0.00 0.00 64 918.2
20260505100215 94 180 24.0 0.0 0.00 0.00 0.00 64 918.2
20260505100106 94 180 14.0 0.0 0.00 0.00 0.00 66 918.2
20260505095958 94 315 9.0 0.0 0.00 0.00 0.00 66 918.3
20260505095849 94 315 36.0 0.0 0.00 0.00 0.00 67 918.2
20260505095741 93 315 0.0 0.0 0.00 0.00 0.00 67 918.2
20260505095633 93 270 16.0 0.0 0.00 0.00 0.00 66 918.3
20260505095524 93 45 4.0 0.0 0.00 0.00 0.00 66 918.3
20260505095416 93 0 9.0 0.0 0.00 0.00 0.00 65 918.3
20260505095307 93 45 9.0 0.0 0.00 0.00 0.00 63 918.3
20260505095159 93 45 35.0 0.0 0.00 0.00 0.00 61 918.3
20260505095050 94 180 52.0 0.0 0.00 0.00 0.00 59 918.3
20260505094942 95 180 22.0 0.0 0.00 0.00 0.00 58 918.2
20260505094833 97 180 34.0 0.0 0.00 0.00 0.00 58 918.2
20260505094725 99 135 19.0 0.0 0.00 0.00 0.00 59 918.2
20260505094617 100 180 9.0 0.0 0.00 0.00 0.00 62 918.2
20260505094508 101 315 14.0 0.0 0.00 0.00 0.00 62 918.2
20260505094400 102 315 18.0 0.0 0.00 0.00 0.00 63 918.1
20260505094251 102 315 17.0 0.0 0.00 0.00 0.00 64 918.2
20260505094143 102 90 3.0 0.0 0.00 0.00 0.00 64 918.2
20260505094035 101 315 4.0 0.0 0.00 0.00 0.00 64 918.2
20260505093926 101 135 1.0 0.0 0.00 0.00 0.00 64 918.3
20260505093818 10 180 13.0 0.0 0.00 0.00 0.00 64 918.3
20260505093709 99 315 27.0 0.0 0.00 0.00 0.00 64 918.3
20260505093601 98 315 13.0 0.0 0.00 0.00 0.00 64 918.3
20260505093452 97 0 7.0 0.0 0.00 0.00 0.00 64 918.3
20260505093344 96 90 20.0 0.0 0.00 0.00 0.00 64 918.3
20260505093235 96 315 20.0 0.0 0.00 0.00 0.00 64 918.3
20260505093127 95 315 51.0 0.0 0.00 0.00 0.00 63 918.4
20260505093018 95 45 22.0 0.0 0.00 0.00 0.00 62 918.5
20260505092910 94 90 44.0 0.0 0.00 0.00 0.00 63 918.5
20260505092802 94 180 57.0 0.0 0.00 0.00 0.00 62 918.5
20260505092653 94 225 28.0 0.0 0.00 0.00 0.00 62 918.4
20260505092545 94 225 36.0 0.0 0.00 0.00 0.00 62 918.4
20260505092436 94 90 42.0 0.0 0.00 0.00 0.00 62 918.5
20260505092328 93 90 54.0 0.0 0.00 0.00 0.00 62 918.5
20260505092219 93 90 24.0 0.0 0.00 0.00 0.00 63 918.5
20260505092111 93 180 19.0 0.0 0.00 0.00 0.00 64 918.5
20260505092003 92 180 37.0 0.0 0.00 0.00 0.00 65 918.5
20260505091854 92 180 17.0 0.0 0.00 0.00 0.00 65 918.5
20260505091746 91 135 2.0 0.0 0.00 0.00 0.00 65 918.5
20260505091637 90 270 11.0 0.0 0.00 0.00 0.00 64 918.6
20260505091529 90 90 53.0 0.0 0.00 0.00 0.00 63 918.6
20260505091421 90 135 22.0 0.0 0.00 0.00 0.00 63 918.7
20260505091312 89 180 62.0 0.0 0.00 0.00 0.00 63 918.6
20260505091203 89 180 67.0 0.0 0.00 0.00 0.00 63 918.6
20260505091055 89 180 9.0 0.0 0.00 0.00 0.00 64 918.6
20260505090947 89 180 9.0 0.0 0.00 0.00 0.00 64 918.6
20260505090838 89 225 9.0 0.0 0.00 0.00 0.00 63 918.6
20260505090730 89 225 92.0 0.0 0.00 0.00 0.00 62 918.7
20260505090621 89 180 50.0 0.0 0.00 0.00 0.00 63 918.7
20260505090513 89 180 40.0 0.0 0.00 0.00 0.00 63 918.6
20260505090404 89 225 59.0 0.0 0.00 0.00 0.00 62 918.6
20260505090256 89 180 61.0 0.0 0.00 0.00 0.00 62 918.6
20260505090147 89 180 84.0 0.0 0.00 0.00 0.00 61 918.6
20260505090039 89 90 57.0 0.0 0.00 0.00 0.00 61 918.7
20260505085931 90 225 67.0 0.0 0.00 0.00 0.00 61 918.7
20260505085822 90 225 66.0 0.0 0.00 0.00 0.00 62 918.7
20260505085714 90 180 65.0 0.0 0.00 0.00 0.00 62 918.7
20260505085605 90 225 39.0 0.0 0.00 0.00 0.00 62 918.7
20260505085457 90 180 46.0 0.0 0.00 0.00 0.00 62 918.7
20260505085348 90 225 54.0 0.0 0.00 0.00 0.00 62 918.7
20260505085240 90 225 61.0 0.0 0.00 0.00 0.00 62 918.7
20260505085132 91 180 43.0 0.0 0.00 0.00 0.00 64 918.7
20260505085023 90 180 29.0 0.0 0.00 0.00 0.00 66 918.7
20260505084915 90 45 15.0 0.0 0.00 0.00 0.00 69 918.8
20260505084806 89 0 1.0 0.0 0.00 0.00 0.00 69 918.8
20260505084658 88 0 29.0 0.0 0.00 0.00 0.00 68 918.8
20260505084549 87 180 24.0 0.0 0.00 0.00 0.00 68 918.8
20260505084441 86 90 23.0 0.0 0.00 0.00 0.00 68 918.8
20260505084332 85 225 13.0 0.0 0.00 0.00 0.00 68 918.8
20260505084224 84 315 35.0 0.0 0.00 0.00 0.00 69 918.8
20260505084115 83 135 29.0 0.0 0.00 0.00 0.00 69 918.8
20260505084007 82 270 21.0 0.0 0.00 0.00 0.00 69 918.9
20260505083859 81 225 16.0 0.0 0.00 0.00 0.00 68 918.9
20260505083750 81 225 19.0 0.0 0.00 0.00 0.00 67 918.9
20260505083642 81 45 22.0 0.0 0.00 0.00 0.00 68 918.9
20260505083533 81 0 43.0 0.0 0.00 0.00 0.00 67 918.9
20260505083425 81 0 58.0 0.0 0.00 0.00 0.00 66 918.9
20260505083316 81 315 3.0 0.0 0.00 0.00 0.00 66 918.9
20260505083208 81 90 1.0 0.0 0.00 0.00 0.00 65 919.0
20260505083100 82 315 12.0 0.0 0.00 0.00 0.00 64 919.0
20260505082951 83 0 16.0 0.0 0.00 0.00 0.00 64 919.0
20260505082843 83 0 15.0 0.0 0.00 0.00 0.00 63 919.0
20260505082734 83 315 22.0 0.0 0.00 0.00 0.00 63 919.0
20260505082626 84 225 19.0 0.0 0.00 0.00 0.00 62 919.0
20260505082517 84 90 10.0 0.0 0.00 0.00 0.00 62 919.0
20260505082409 84 270 65.0 0.0 0.00 0.00 0.00 62 919.0
20260505082300 85 180 58.0 0.0 0.00 0.00 0.00 62 919.1
20260505082152 85 135 41.0 0.0 0.00 0.00 0.00 62 919.1
20260505082044 85 180 45.0 0.0 0.00 0.00 0.00 63 919.0
20260505081935 85 135 29.0 0.0 0.00 0.00 0.00 62 919.1
20260505081827 85 135 9.0 0.0 0.00 0.00 0.00 62 919.1
20260505081718 85 225 39.0 0.0 0.00 0.00 0.00 62 919.1
20260505081610 85 180 33.0 0.0 0.00 0.00 0.00 62 919.0
20260505081501 85 225 6.0 0.0 0.00 0.00 0.00 62 919.0
20260505081353 85 225 10.0 0.0 0.00 0.00 0.00 61 919.1
20260505081245 86 0 35.0 0.0 0.00 0.00 0.00 61 919.1
20260505081137 86 0 42.0 0.0 0.00 0.00 0.00 61 919.0
20260505081028 87 45 20.0 0.0 0.00 0.00 0.00 61 919.0
20260505080919 86 135 59.0 0.0 0.00 0.00 0.00 60 919.1
20260505080811 86 180 72.0 0.0 0.00 0.00 0.00 60 919.0
20260505080702 87 180 27.0 0.0 0.00 0.00 0.00 60 919.0
20260505080554 87 180 47.0 0.0 0.00 0.00 0.00 61 919.0
20260505080445 86 180 21.0 0.0 0.00 0.00 0.00 62 919.1
20260505080337 86 45 16.0 0.0 0.00 0.00 0.00 62 919.1
20260505080229 85 180 31.0 0.0 0.00 0.00 0.00 62 919.1
20260505080120 85 180 32.0 0.0 0.00 0.00 0.00 62 919.1
20260505080012 84 135 10.0 0.0 0.00 0.00 0.00 63 919.1
20260505075903 84 225 1.0 0.0 0.00 0.00 0.00 63 919.1
20260505075755 83 135 30.0 0.0 0.00 0.00 0.00 62 919.2
20260505075646 83 180 51.0 0.0 0.00 0.00 0.00 63 919.1
20260505075538 82 180 8.0 0.0 0.00 0.00 0.00 64 919.2
20260505075429 81 135 11.0 0.0 0.00 0.00 0.00 63 919.2
20260505075321 81 180 29.0 0.0 0.00 0.00 0.00 63 919.2
20260505075213 81 90 44.0 0.0 0.00 0.00 0.00 63 919.2
20260505075104 81 135 12.0 0.0 0.00 0.00 0.00 63 919.3
20260505074956 81 135 16.0 0.0 0.00 0.00 0.00 63 919.3
20260505074847 80 135 19.0 0.0 0.00 0.00 0.00 63 919.2
20260505074739 80 180 32.0 0.0 0.00 0.00 0.00 63 919.2
20260505074630 80 225 27.0 0.0 0.00 0.00 0.00 63 919.2
20260505074522 80 180 35.0 0.0 0.00 0.00 0.00 64 919.2
20260505074413 80 225 24.0 0.0 0.00 0.00 0.00 65 919.2
20260505074305 80 135 0.0 0.0 0.00 0.00 0.00 67 919.3
20260505074157 79 135 8.0 0.0 0.00 0.00 0.00 67 919.3
20260505074048 77 315 14.0 0.0 0.00 0.00 0.00 67 919.3
20260505073940 76 315 1.0 0.0 0.00 0.00 0.00 66 919.3
20260505073831 75 45 54.0 0.0 0.00 0.00 0.00 66 919.3
20260505073723 75 180 39.0 0.0 0.00 0.00 0.00 66 919.3
20260505073614 74 225 30.0 0.0 0.00 0.00 0.00 66 919.3
20260505073506 74 180 47.0 0.0 0.00 0.00 0.00 65 919.3
20260505073358 74 180 62.0 0.0 0.00 0.00 0.00 65 919.3
20260505073249 74 180 74.0 0.0 0.00 0.00 0.00 65 919.4
20260505073141 75 180 39.0 0.0 0.00 0.00 0.00 65 919.3
20260505073033 75 135 28.0 0.0 0.00 0.00 0.00 65 919.3
20260505072924 75 225 30.0 0.0 0.00 0.00 0.00 64 919.4
20260505072815 75 180 51.0 0.0 0.00 0.00 0.00 64 919.3
20260505072707 76 180 12.0 0.0 0.00 0.00 0.00 64 919.3
20260505072558 76 90 43.0 0.0 0.00 0.00 0.00 63 919.4
20260505072450 77 180 47.0 0.0 0.00 0.00 0.00 63 919.4
20260505072342 77 180 47.0 0.0 0.00 0.00 0.00 63 919.4
20260505072233 78 225 46.0 0.0 0.00 0.00 0.00 63 919.3
20260505072125 78 180 18.0 0.0 0.00 0.00 0.00 63 919.3
20260505072016 79 180 47.0 0.0 0.00 0.00 0.00 62 919.3
20260505071908 79 180 9.0 0.0 0.00 0.00 0.00 62 919.3
20260505071759 80 135 59.0 0.0 0.00 0.00 0.00 61 919.3
20260505071651 81 180 46.0 0.0 0.00 0.00 0.00 61 919.3
20260505071542 81 180 47.0 0.0 0.00 0.00 0.00 61 919.3
20260505071434 81 180 47.0 0.0 0.00 0.00 0.00 60 919.2
20260505071326 82 180 56.0 0.0 0.00 0.00 0.00 60 919.3
20260505071217 82 180 31.0 0.0 0.00 0.00 0.00 60 919.2
20260505071109 82 135 47.0 0.0 0.00 0.00 0.00 60 919.3
20260505071000 82 180 24.0 0.0 0.00 0.00 0.00 60 919.3
20260505070852 82 180 33.0 0.0 0.00 0.00 0.00 60 919.3
20260505070743 82 180 49.0 0.0 0.00 0.00 0.00 60 919.3
20260505070635 82 180 35.0 0.0 0.00 0.00 0.00 60 919.3
20260505070526 82 90 27.0 0.0 0.00 0.00 0.00 59 919.3
20260505070418 83 180 42.0 0.0 0.00 0.00 0.00 59 919.3
20260505070310 83 90 78.0 0.0 0.00 0.00 0.00 59 919.3
20260505070201 83 180 35.0 0.0 0.00 0.00 0.00 59 919.3
20260505070053 83 225 38.0 0.0 0.00 0.00 0.00 59 919.3
20260505065944 83 180 35.0 0.0 0.00 0.00 0.00 60 919.4
20260505065837 84 225 25.0 0.0 0.00 0.00 0.00 60 919.4
20260505065727 84 180 26.0 0.0 0.00 0.00 0.00 61 919.4
20260505065619 83 180 7.0 0.0 0.00 0.00 0.00 62 919.4
20260505065510 83 180 6.0 0.0 0.00 0.00 0.00 63 919.4
20260505065402 82 225 0.0 0.0 0.00 0.00 0.00 63 919.5
20260505065254 82 45 1.0 0.0 0.00 0.00 0.00 63 919.5
20260505065145 81 90 8.0 0.0 0.00 0.00 0.00 63 919.6
20260505065037 81 45 15.0 0.0 0.00 0.00 0.00 63 919.5
20260505064928 80 0 14.0 0.0 0.00 0.00 0.00 63 919.5
20260505064820 80 0 4.0 0.0 0.00 0.00 0.00 63 919.6
20260505064711 80 0 13.0 0.0 0.00 0.00 0.00 64 919.6
20260505064603 79 0 9.0 0.0 0.00 0.00 0.00 64 919.6
20260505064455 79 0 1.0 0.0 0.00 0.00 0.00 64 919.6
20260505064346 78 135 0.0 0.0 0.00 0.00 0.00 65 919.7
20260505064238 77 315 0.0 0.0 0.00 0.00 0.00 66 919.7
20260505064129 76 0 2.0 0.0 0.00 0.00 0.00 66 919.7
20260505064021 76 0 12.0 0.0 0.00 0.00 0.00 66 919.7
20260505063912 75 0 7.0 0.0 0.00 0.00 0.00 66 919.7
20260505063804 75 0 23.0 0.0 0.00 0.00 0.00 66 919.7
20260505063655 74 0 27.0 0.0 0.00 0.00 0.00 66 919.7
20260505063547 74 0 14.0 0.0 0.00 0.00 0.00 66 919.7
20260505063439 74 45 24.0 0.0 0.00 0.00 0.00 66 919.7
20260505063330 73 0 32.0 0.0 0.00 0.00 0.00 66 919.8
20260505063222 73 315 36.0 0.0 0.00 0.00 0.00 66 919.8
20260505063113 73 0 6.0 0.0 0.00 0.00 0.00 67 919.8
20260505063005 72 0 16.0 0.0 0.00 0.00 0.00 67 919.8
20260505062856 72 0 12.0 0.0 0.00 0.00 0.00 67 919.8
20260505062748 71 0 2.0 0.0 0.00 0.00 0.00 67 919.9
20260505062640 71 0 5.0 0.0 0.00 0.00 0.00 68 919.9
20260505062531 70 315 11.0 0.0 0.00 0.00 0.00 68 920.0
20260505062423 70 0 13.0 0.0 0.00 0.00 0.00 68 920.0
20260505062314 70 0 9.0 0.0 0.00 0.00 0.00 68 920.0
20260505062206 69 0 5.0 0.0 0.00 0.00 0.00 68 920.0
20260505062057 69 0 34.0 0.0 0.00 0.00 0.00 68 920.0
20260505061949 69 0 0.0 0.0 0.00 0.00 0.00 68 920.0
20260505061840 69 315 2.0 0.0 0.00 0.00 0.00 68 920.1
20260505061732 68 315 7.0 0.0 0.00 0.00 0.00 68 920.0
20260505061623 68 0 13.0 0.0 0.00 0.00 0.00 69 920.1
20260505061515 68 45 10.0 0.0 0.00 0.00 0.00 69 920.1
20260505061407 67 0 1.0 0.0 0.00 0.00 0.00 70 920.1
20260505061258 67 0 2.0 0.0 0.00 0.00 0.00 70 920.1
20260505061150 66 315 17.0 0.0 0.00 0.00 0.00 70 920.0
20260505061041 65 0 4.0 0.0 0.00 0.00 0.00 70 920.0
20260505060933 65 315 3.0 0.0 0.00 0.00 0.00 71 920.1
20260505060824 64 315 2.0 0.0 0.00 0.00 0.00 71 920.1
20260505060716 63 315 5.0 0.0 0.00 0.00 0.00 71 920.1
20260505060608 63 0 0.0 0.0 0.00 0.00 0.00 72 920.2
20260505060459 62 315 0.0 0.0 0.00 0.00 0.00 72 920.2
20260505060351 61 315 0.0 0.0 0.00 0.00 0.00 72 920.2
20260505060242 60 315 2.0 0.0 0.00 0.00 0.00 72 920.2
20260505060134 59 315 11.0 0.0 0.00 0.00 0.00 72 920.2
20260505060025 59 0 24.0 0.0 0.00 0.00 0.00 73 920.2
20260505055917 58 0 17.0 0.0 0.00 0.00 0.00 73 920.2
20260505055808 57 0 0.0 0.0 0.00 0.00 0.00 73 920.1
20260505055700 57 45 0.0 0.0 0.00 0.00 0.00 73 920.2
20260505055552 56 45 0.0 0.0 0.00 0.00 0.00 74 920.1
20260505055443 55 45 0.0 0.0 0.00 0.00 0.00 74 920.2
20260505055335 54 45 11.0 0.0 0.00 0.00 0.00 74 920.2
20260505055226 54 0 21.0 0.0 0.00 0.00 0.00 74 920.1
20260505055118 53 315 1.0 0.0 0.00 0.00 0.00 73 920.1
20260505055009 53 315 4.0 0.0 0.00 0.00 0.00 73 920.2
20260505054901 52 315 10.0 0.0 0.00 0.00 0.00 73 920.2
20260505054752 52 315 19.0 0.0 0.00 0.00 0.00 73 920.2
20260505054644 52 0 16.0 0.0 0.00 0.00 0.00 73 920.2
20260505054536 52 0 1.0 0.0 0.00 0.00 0.00 73 920.3
20260505054427 51 270 0.0 0.0 0.00 0.00 0.00 73 920.3
20260505054319 51 315 13.0 0.0 0.00 0.00 0.00 73 920.3
20260505054210 51 315 26.0 0.0 0.00 0.00 0.00 73 920.3
20260505054102 51 0 0.0 0.0 0.00 0.00 0.00 73 920.3
20260505053953 51 315 14.0 0.0 0.00 0.00 0.00 73 920.3
20260505053845 51 270 20.0 0.0 0.00 0.00 0.00 73 920.3
20260505053737 50 315 9.0 0.0 0.00 0.00 0.00 73 920.2
20260505053628 50 315 1.0 0.0 0.00 0.00 0.00 73 920.2
20260505053520 50 0 9.0 0.0 0.00 0.00 0.00 73 920.3
20260505053411 50 315 0.0 0.0 0.00 0.00 0.00 73 920.2
20260505053303 50 0 0.0 0.0 0.00 0.00 0.00 73 920.2
20260505053154 50 315 0.0 0.0 0.00 0.00 0.00 73 920.2
20260505053046 49 270 0.0 0.0 0.00 0.00 0.00 73 920.2
20260505052829 49 315 0.0 0.0 0.00 0.00 0.00 73 920.2
20260505052721 49 315 3.0 0.0 0.00 0.00 0.00 73 920.2
20260505052612 49 0 10.0 0.0 0.00 0.00 0.00 73 920.3
20260505052504 48 0 1.0 0.0 0.00 0.00 0.00 73 920.3
20260505052355 48 315 10.0 0.0 0.00 0.00 0.00 73 920.3
20260505052247 48 315 7.0 0.0 0.00 0.00 0.00 73 920.3
20260505052138 48 315 2.0 0.0 0.00 0.00 0.00 73 920.3
20260505052030 48 270 14.0 0.0 0.00 0.00 0.00 73 920.4
20260505051922 47 270 2.0 0.0 0.00 0.00 0.00 73 920.3
20260505051813 47 315 8.0 0.0 0.00 0.00 0.00 73 920.4
20260505051705 47 270 11.0 0.0 0.00 0.00 0.00 73 920.5
20260505051556 47 0 6.0 0.0 0.00 0.00 0.00 73 920.4
20260505051448 47 315 2.0 0.0 0.00 0.00 0.00 73 920.4
20260505051339 47 315 10.0 0.0 0.00 0.00 0.00 73 920.5
20260505051231 47 0 16.0 0.0 0.00 0.00 0.00 73 920.4
20260505051122 47 0 1.0 0.0 0.00 0.00 0.00 73 920.5
20260505051014 47 315 12.0 0.0 0.00 0.00 0.00 73 920.4
20260505050906 47 0 7.0 0.0 0.00 0.00 0.00 73 920.4
20260505050757 46 315 1.0 0.0 0.00 0.00 0.00 73 920.4
20260505050649 46 270 8.0 0.0 0.00 0.00 0.00 73 920.4
20260505050540 46 270 1.0 0.0 0.00 0.00 0.00 73 920.4
20260505050432 46 315 8.0 0.0 0.00 0.00 0.00 73 920.5
20260505050323 46 315 33.0 0.0 0.00 0.00 0.00 73 920.4
20260505050215 46 0 0.0 0.0 0.00 0.00 0.00 73 920.5
20260505050106 46 315 8.0 0.0 0.00 0.00 0.00 73 920.5
20260505041746 45 270 4.0 0.0 0.00 0.00 0.00 73 920.5
20260505041637 45 225 0.0 0.0 0.00 0.00 0.00 73 920.5
20260505041529 44 90 1.0 0.0 0.00 0.00 0.00 73 920.5
20260505041420 44 45 0.0 0.0 0.00 0.00 0.00 73 920.5
20260505041312 44 315 0.0 0.0 0.00 0.00 0.00 73 920.5
20260505041204 44 315 1.0 0.0 0.00 0.00 0.00 73 920.4
20260505040947 44 315 18.0 0.0 0.00 0.00 0.00 73 920.4
20260505040838 44 0 38.0 0.0 0.00 0.00 0.00 73 920.4
20260505040730 44 0 1.0 0.0 0.00 0.00 0.00 73 920.4
20260505040621 44 315 8.0 0.0 0.00 0.00 0.00 73 920.5
20260505040405 44 315 1.0 0.0 0.00 0.00 0.00 72 920.5
20260505040256 44 270 24.0 0.0 0.00 0.00 0.00 72 920.4
20260505040148 44 315 22.0 0.0 0.00 0.00 0.00 72 920.4
20260505035931 44 315 2.0 0.0 0.00 0.00 0.00 72 920.5
20260505035822 44 315 0.0 0.0 0.00 0.00 0.00 72 920.4
20260505035714 44 0 7.0 0.0 0.00 0.00 0.00 72 920.4
20260505035605 44 315 7.0 0.0 0.00 0.00 0.00 72 920.5
20260505035457 44 315 9.0 0.0 0.00 0.00 0.00 72 920.4
20260505035349 44 315 2.0 0.0 0.00 0.00 0.00 72 920.5
20260505035240 44 0 0.0 0.0 0.00 0.00 0.00 72 920.4
20260505035132 44 90 0.0 0.0 0.00 0.00 0.00 72 920.4
20260505035023 44 270 7.0 0.0 0.00 0.00 0.00 72 920.4
20260505034915 44 270 7.0 0.0 0.00 0.00 0.00 72 920.4
20260505034806 44 315 12.0 0.0 0.00 0.00 0.00 72 920.4
20260505034658 44 315 15.0 0.0 0.00 0.00 0.00 72 920.5
20260505034549 44 0 0.0 0.0 0.00 0.00 0.00 72 920.5
20260505034441 44 315 2.0 0.0 0.00 0.00 0.00 72 920.5
20260505034333 44 270 1.0 0.0 0.00 0.00 0.00 72 920.5
20260505034225 44 315 7.0 0.0 0.00 0.00 0.00 72 920.5
20260505034116 44 315 34.0 0.0 0.00 0.00 0.00 72 920.5
20260505034008 44 315 21.0 0.0 0.00 0.00 0.00 72 920.5
20260505033900 44 0 7.0 0.0 0.00 0.00 0.00 72 920.6
20260505033752 44 0 15.0 0.0 0.00 0.00 0.00 73 920.6
20260505033643 44 315 2.0 0.0 0.00 0.00 0.00 73 920.6
20260505033535 44 315 7.0 0.0 0.00 0.00 0.00 73 920.6
20260505033318 44 315 9.0 0.0 0.00 0.00 0.00 73 920.7
20260505033210 44 315 4.0 0.0 0.00 0.00 0.00 73 920.6
20260505033102 44 315 9.0 0.0 0.00 0.00 0.00 72 920.6
20260505032954 44 315 11.0 0.0 0.00 0.00 0.00 72 920.6
20260505032845 44 270 3.0 0.0 0.00 0.00 0.00 72 920.6
20260505032737 44 270 18.0 0.0 0.00 0.00 0.00 72 920.6
20260505032629 44 0 0.0 0.0 0.00 0.00 0.00 72 920.6
20260505032521 44 315 1.0 0.0 0.00 0.00 0.00 72 920.7
20260505032412 44 315 6.0 0.0 0.00 0.00 0.00 72 920.6
20260505032304 44 315 0.0 0.0 0.00 0.00 0.00 72 920.6
20260505032156 44 0 1.0 0.0 0.00 0.00 0.00 72 920.7
20260505032047 44 0 9.0 0.0 0.00 0.00 0.00 72 920.6
20260505031939 44 0 0.0 0.0 0.00 0.00 0.00 72 920.6
20260505031831 44 315 2.0 0.0 0.00 0.00 0.00 72 920.7
20260505031722 44 225 1.0 0.0 0.00 0.00 0.00 72 920.6
20260505031614 44 180 0.0 0.0 0.00 0.00 0.00 72 920.6
20260505031506 44 315 0.0 0.0 0.00 0.00 0.00 72 920.7
20260505031358 44 315 0.0 0.0 0.00 0.00 0.00 72 920.7
20260505031249 44 315 0.0 0.0 0.00 0.00 0.00 72 920.6
20260505031141 44 0 0.0 0.0 0.00 0.00 0.00 72 920.7
20260505031033 44 0 0.0 0.0 0.00 0.00 0.00 72 920.7
20260505030925 44 315 2.0 0.0 0.00 0.00 0.00 72 920.7
20260505030816 44 315 1.0 0.0 0.00 0.00 0.00 72 920.8
20260505030708 44 315 0.0 0.0 0.00 0.00 0.00 72 920.7
20260505030600 44 315 11.0 0.0 0.00 0.00 0.00 72 920.8
20260505030451 44 315 14.0 0.0 0.00 0.00 0.00 72 920.7
20260505030343 44 0 0.0 0.0 0.00 0.00 0.00 72 920.8
20260505030235 44 315 6.0 0.0 0.00 0.00 0.00 72 920.8
20260505030127 44 315 2.0 0.0 0.00 0.00 0.00 72 920.8
20260505030018 44 315 11.0 0.0 0.00 0.00 0.00 72 920.8
20260505025910 44 0 0.0 0.0 0.00 0.00 0.00 72 920.9
20260505025802 44 315 0.0 0.0 0.00 0.00 0.00 72 920.8
20260505025654 44 315 0.0 0.0 0.00 0.00 0.00 72 920.8
20260505025545 44 315 0.0 0.0 0.00 0.00 0.00 72 920.9
20260505025437 44 315 6.0 0.0 0.00 0.00 0.00 72 920.9
20260505025329 44 315 0.0 0.0 0.00 0.00 0.00 72 920.9
20260505025220 44 315 2.0 0.0 0.00 0.00 0.00 72 920.9
20260505025112 44 315 19.0 0.0 0.00 0.00 0.00 72 920.9
20260505025004 44 315 11.0 0.0 0.00 0.00 0.00 72 920.9
20260505024856 44 0 0.0 0.0 0.00 0.00 0.00 72 920.9
20260505024747 44 270 0.0 0.0 0.00 0.00 0.00 72 920.9
20260505024639 44 0 15.0 0.0 0.00 0.00 0.00 72 920.9
20260505024531 44 0 5.0 0.0 0.00 0.00 0.00 72 920.9
20260505024423 44 315 1.0 0.0 0.00 0.00 0.00 72 920.9
20260505024314 44 315 1.0 0.0 0.00 0.00 0.00 72 920.9
20260505024206 44 315 1.0 0.0 0.00 0.00 0.00 72 921.0
20260505024058 44 315 8.0 0.0 0.00 0.00 0.00 72 920.9
20260505023949 44 315 0.0 0.0 0.00 0.00 0.00 72 921.0
20260505023733 44 0 9.0 0.0 0.00 0.00 0.00 72 921.0
20260505023625 45 315 1.0 0.0 0.00 0.00 0.00 72 921.0
20260505023516 45 0 7.0 0.0 0.00 0.00 0.00 72 921.0
20260505023408 45 45 0.0 0.0 0.00 0.00 0.00 72 921.0
20260505023300 45 0 7.0 0.0 0.00 0.00 0.00 72 921.0
20260505023151 45 0 19.0 0.0 0.00 0.00 0.00 72 921.0
20260505023043 45 0 0.0 0.0 0.00 0.00 0.00 72 921.0
20260505022935 45 315 0.0 0.0 0.00 0.00 0.00 72 921.1
20260505022827 45 315 0.0 0.0 0.00 0.00 0.00 72 921.1
20260505022718 45 0 1.0 0.0 0.00 0.00 0.00 72 921.1
20260505022610 45 315 8.0 0.0 0.00 0.00 0.00 72 921.1
20260505022502 45 0 13.0 0.0 0.00 0.00 0.00 72 921.0
20260505022354 45 0 0.0 0.0 0.00 0.00 0.00 72 921.0
20260505022246 45 315 0.0 0.0 0.00 0.00 0.00 72 921.0
20260505022137 45 315 0.0 0.0 0.00 0.00 0.00 72 921.0
20260505022029 45 315 1.0 0.0 0.00 0.00 0.00 72 921.0
20260505021920 45 315 1.0 0.0 0.00 0.00 0.00 72 921.1
20260505021812 45 0 1.0 0.0 0.00 0.00 0.00 72 921.1
20260505021704 45 270 0.0 0.0 0.00 0.00 0.00 72 921.1
20260505021556 45 315 0.0 0.0 0.00 0.00 0.00 72 921.1
20260505021447 45 315 0.0 0.0 0.00 0.00 0.00 72 921.1
20260505021339 45 315 3.0 0.0 0.00 0.00 0.00 72 921.1
20260505021123 46 0 0.0 0.0 0.00 0.00 0.00 72 921.1
20260505021014 46 315 7.0 0.0 0.00 0.00 0.00 72 921.1
20260505020906 46 315 1.0 0.0 0.00 0.00 0.00 72 921.1
20260505020758 46 315 30.0 0.0 0.00 0.00 0.00 72 921.1
20260505020649 46 315 0.0 0.0 0.00 0.00 0.00 72 921.2
20260505020541 46 0 1.0 0.0 0.00 0.00 0.00 72 921.2
20260505020433 46 0 0.0 0.0 0.00 0.00 0.00 72 921.2
20260505020324 46 0 0.0 0.0 0.00 0.00 0.00 72 921.2
20260505020216 46 0 7.0 0.0 0.00 0.00 0.00 72 921.2
20260505020108 46 0 1.0 0.0 0.00 0.00 0.00 72 921.2
20260505020000 46 315 8.0 0.0 0.00 0.00 0.00 72 921.2
20260505015851 46 270 0.0 0.0 0.00 0.00 0.00 72 921.2
20260505015743 46 315 16.0 0.0 0.00 0.00 0.00 72 921.3
20260505015635 46 0 19.0 0.0 0.00 0.00 0.00 72 921.3
20260505015527 46 0 5.0 0.0 0.00 0.00 0.00 72 921.3
20260505015418 46 315 5.0 0.0 0.00 0.00 0.00 72 921.2
20260505015310 46 0 14.0 0.0 0.00 0.00 0.00 72 921.3
20260505015202 46 270 3.0 0.0 0.00 0.00 0.00 72 921.3
20260505015053 46 270 0.0 0.0 0.00 0.00 0.00 72 921.3
20260505014945 46 270 7.0 0.0 0.00 0.00 0.00 72 921.3
20260505014729 46 315 12.0 0.0 0.00 0.00 0.00 72 921.3
20260505014620 46 0 1.0 0.0 0.00 0.00 0.00 72 921.3
20260505014512 46 0 8.0 0.0 0.00 0.00 0.00 72 921.3
20260505014404 46 315 1.0 0.0 0.00 0.00 0.00 72 921.3
20260505014255 46 315 1.0 0.0 0.00 0.00 0.00 72 921.4
20260505014147 46 0 0.0 0.0 0.00 0.00 0.00 72 921.4
20260505014039 46 0 4.0 0.0 0.00 0.00 0.00 72 921.3
20260505013931 46 0 0.0 0.0 0.00 0.00 0.00 72 921.3
20260505013822 46 315 0.0 0.0 0.00 0.00 0.00 72 921.3
20260505013714 46 315 0.0 0.0 0.00 0.00 0.00 72 921.3
20260505013606 46 315 0.0 0.0 0.00 0.00 0.00 72 921.3
20260505013458 46 315 0.0 0.0 0.00 0.00 0.00 72 921.3
20260505013349 46 315 0.0 0.0 0.00 0.00 0.00 72 921.3
20260505013241 46 315 0.0 0.0 0.00 0.00 0.00 72 921.3
20260505013133 46 315 0.0 0.0 0.00 0.00 0.00 72 921.3
20260505013024 46 315 0.0 0.0 0.00 0.00 0.00 72 921.3
20260505012808 46 0 0.0 0.0 0.00 0.00 0.00 73 921.3
20260505012700 46 315 0.0 0.0 0.00 0.00 0.00 73 921.3
20260505012551 46 315 0.0 0.0 0.00 0.00 0.00 73 921.3
20260505012443 46 315 0.0 0.0 0.00 0.00 0.00 72 921.4
20260505012335 47 315 0.0 0.0 0.00 0.00 0.00 72 921.4
20260505012227 47 315 0.0 0.0 0.00 0.00 0.00 72 921.4
20260505012118 46 315 0.0 0.0 0.00 0.00 0.00 73 921.4
20260505012010 47 270 0.0 0.0 0.00 0.00 0.00 72 921.4
20260505011902 47 0 0.0 0.0 0.00 0.00 0.00 73 921.4
20260505011753 47 0 18.0 0.0 0.00 0.00 0.00 73 921.4
20260505011645 47 315 9.0 0.0 0.00 0.00 0.00 73 921.4
20260505011537 47 0 0.0 0.0 0.00 0.00 0.00 73 921.4
20260505011429 47 315 0.0 0.0 0.00 0.00 0.00 73 921.4
20260505011320 47 315 3.0 0.0 0.00 0.00 0.00 73 921.5
20260505011212 47 315 0.0 0.0 0.00 0.00 0.00 73 921.4
20260505011104 47 0 9.0 0.0 0.00 0.00 0.00 73 921.5
20260505010955 47 0 0.0 0.0 0.00 0.00 0.00 73 921.5
20260505010847 47 315 0.0 0.0 0.00 0.00 0.00 73 921.5
20260505010739 47 315 0.0 0.0 0.00 0.00 0.00 73 921.5
20260505010631 47 315 1.0 0.0 0.00 0.00 0.00 73 921.5
20260505010522 47 315 0.0 0.0 0.00 0.00 0.00 73 921.5
20260505010414 47 315 10.0 0.0 0.00 0.00 0.00 73 921.6
20260505010306 47 315 22.0 0.0 0.00 0.00 0.00 73 921.6
20260505010158 47 0 11.0 0.0 0.00 0.00 0.00 73 921.5
20260505010049 47 45 0.0 0.0 0.00 0.00 0.00 72 921.6
20260505005941 47 315 0.0 0.0 0.00 0.00 0.00 72 921.6
20260505005833 47 270 1.0 0.0 0.00 0.00 0.00 72 921.6
20260505005724 47 270 15.0 0.0 0.00 0.00 0.00 72 921.6
20260505005616 47 0 0.0 0.0 0.00 0.00 0.00 72 921.6
20260505005508 47 315 7.0 0.0 0.00 0.00 0.00 72 921.6
20260505005400 47 315 16.0 0.0 0.00 0.00 0.00 72 921.6
20260505005251 47 0 3.0 0.0 0.00 0.00 0.00 72 921.6
20260505005143 47 315 7.0 0.0 0.00 0.00 0.00 72 921.6
20260505005035 47 315 2.0 0.0 0.00 0.00 0.00 72 921.7
20260505004927 48 315 1.0 0.0 0.00 0.00 0.00 72 921.7
20260505004818 48 0 1.0 0.0 0.00 0.00 0.00 72 921.7
20260505004710 48 315 0.0 0.0 0.00 0.00 0.00 72 921.7
20260505004602 48 315 9.0 0.0 0.00 0.00 0.00 72 921.7
20260505004453 48 0 2.0 0.0 0.00 0.00 0.00 72 921.7
20260505004345 48 315 9.0 0.0 0.00 0.00 0.00 72 921.7
20260505004237 48 315 0.0 0.0 0.00 0.00 0.00 72 921.7
20260505004129 48 315 0.0 0.0 0.00 0.00 0.00 72 921.7
20260505004020 48 315 2.0 0.0 0.00 0.00 0.00 72 921.7
20260505003804 48 315 5.0 0.0 0.00 0.00 0.00 72 921.8
20260505003656 49 0 0.0 0.0 0.00 0.00 0.00 73 921.8
20260505003547 49 315 0.0 0.0 0.00 0.00 0.00 73 921.8
20260505003439 49 315 0.0 0.0 0.00 0.00 0.00 73 921.8
20260505003331 49 315 0.0 0.0 0.00 0.00 0.00 73 921.8
20260505003222 49 315 0.0 0.0 0.00 0.00 0.00 73 921.9
20260505003114 49 315 9.0 0.0 0.00 0.00 0.00 73 921.9
20260505003006 49 0 0.0 0.0 0.00 0.00 0.00 73 921.9
20260505002749 49 0 0.0 0.0 0.00 0.00 0.00 73 921.9
20260505002641 49 0 0.0 0.0 0.00 0.00 0.00 73 921.9
20260505002533 49 315 0.0 0.0 0.00 0.00 0.00 73 921.9
20260505002424 49 315 0.0 0.0 0.00 0.00 0.00 73 921.9
20260505002316 49 0 0.0 0.0 0.00 0.00 0.00 73 921.9
20260505002208 49 315 0.0 0.0 0.00 0.00 0.00 73 921.9
20260505002100 49 315 0.0 0.0 0.00 0.00 0.00 73 921.9
20260505001951 49 315 0.0 0.0 0.00 0.00 0.00 73 921.9
20260505001843 49 315 0.0 0.0 0.00 0.00 0.00 73 921.9
20260505001735 49 315 0.0 0.0 0.00 0.00 0.00 73 921.9
20260505001626 49 315 0.0 0.0 0.00 0.00 0.00 73 921.9
20260505001518 49 0 0.0 0.0 0.00 0.00 0.00 73 921.9
20260505001410 50 0 15.0 0.0 0.00 0.00 0.00 73 921.9
20260505001302 50 315 7.0 0.0 0.00 0.00 0.00 921.9
20260505001153 50 0 0.0 0.0 0.00 0.00 0.00 74 922.0
20260505001045 50 0 0.0 0.0 0.00 0.00 0.00 74 921.9
20260505000937 50 315 0.0 0.0 0.00 0.00 0.00 74 921.9
20260505000829 50 315 0.0 0.0 0.00 0.00 0.00 74 921.9
20260505000504 50 315 18.0 0.0 0.00 0.00 0.00 74 922.0
20260505000358 50 0 0.0 0.0 0.00 0.00 0.00 74 922.0
20260505000247 50 315 0.0 0.0 0.00 0.00 0.00 74 922.0
20260505000139 50 315 0.0 0.0 0.00 0.00 0.00 74 922.0
20260505000031 50 315 0.0 0.0 0.00 0.00 0.00 74 922.0
20260504235922 50 315 0.0 0.0 0.00 0.00 0.00 74 922.0
20260504235706 50 315 16.0 0.0 0.00 0.00 0.00 74 922.0
20260504235558 50 315 0.0 0.0 0.00 0.00 0.00 74 922.0
20260504235449 50 315 0.0 0.0 0.00 0.00 0.00 74 922.1
20260504235341 50 315 0.0 0.0 0.00 0.00 0.00 74 922.0
20260504235233 50 315 0.0 0.0 0.00 0.00 0.00 74 922.1
20260504235124 50 315 8.0 0.0 0.00 0.00 0.00 74 922.1
20260504235016 50 315 17.0 0.0 0.00 0.00 0.00 74 922.0
20260504234908 50 0 0.0 0.0 0.00 0.00 0.00 74 922.0
20260504234800 50 315 0.0 0.0 0.00 0.00 0.00 74 922.0
20260504234651 50 315 2.0 0.0 0.00 0.00 0.00 74 922.1
20260504234543 50 315 7.0 0.0 0.00 0.00 0.00 74 922.1
20260504234435 50 0 0.0 0.0 0.00 0.00 0.00 74 922.1
20260504234327 50 0 7.0 0.0 0.00 0.00 0.00 74 922.1
20260504234218 50 0 0.0 0.0 0.00 0.00 0.00 74 922.1
20260504234110 50 0 1.0 0.0 0.00 0.00 0.00 74 922.1
20260504234002 50 0 15.0 0.0 0.00 0.00 0.00 74 922.0
20260504233853 50 0 0.0 0.0 0.00 0.00 0.00 74 922.1
20260504233745 50 0 3.0 0.0 0.00 0.00 0.00 74 922.1
20260504233529 50 270 0.0 0.0 0.00 0.00 0.00 74 922.0
20260504233055 50 270 0.0 0.0 0.00 0.00 0.00 74 922.1
20260504232839 50 0 0.0 0.0 0.00 0.00 0.00 74 922.2
20260504232622 50 315 4.0 0.0 0.00 0.00 0.00 74 922.2
20260504232514 50 0 0.0 0.0 0.00 0.00 0.00 74 922.2
20260504232406 50 315 0.0 0.0 0.00 0.00 0.00 74 922.2
20260504232257 50 315 0.0 0.0 0.00 0.00 0.00 74 922.2
20260504232149 50 315 0.0 0.0 0.00 0.00 0.00 74 922.2
20260504232041 50 315 0.0 0.0 0.00 0.00 0.00 74 922.3
20260504231933 50 45 0.0 0.0 0.00 0.00 0.00 74 922.3
20260504231824 50 315 1.0 0.0 0.00 0.00 0.00 922.3
20260504231716 50 315 0.0 0.0 0.00 0.00 0.00 73 922.3
20260504231608 50 0 18.0 0.0 0.00 0.00 0.00 73 922.3
20260504231500 50 0 4.0 0.0 0.00 0.00 0.00 74 922.3
20260504231351 50 0 7.0 0.0 0.00 0.00 0.00 74 922.3
20260504231243 50 270 0.0 0.0 0.00 0.00 0.00 73 922.3
20260504231135 50 315 6.0 0.0 0.00 0.00 0.00 74 922.3
20260504231026 50 0 6.0 0.0 0.00 0.00 0.00 74 922.3
20260504230918 50 315 2.0 0.0 0.00 0.00 0.00 74 922.4
20260504230810 50 0 3.0 0.0 0.00 0.00 0.00 922.4
20260504230702 49 315 18.0 0.0 0.00 0.00 0.00 73 922.4
20260504230553 49 270 8.0 0.0 0.00 0.00 0.00 73 922.4
20260504230445 49 315 3.0 0.0 0.00 0.00 0.00 73 922.4
20260504230337 50 315 0.0 0.0 0.00 0.00 0.00 73 922.4
20260504230229 50 315 0.0 0.0 0.00 0.00 0.00 73 922.4
20260504230120 50 315 0.0 0.0 0.00 0.00 0.00 73 922.4
20260504230012 50 315 0.0 0.0 0.00 0.00 0.00 73 922.4
20260504225904 50 315 2.0 0.0 0.00 0.00 0.00 73 922.4
20260504225755 50 315 25.0 0.0 0.00 0.00 0.00 73 922.4
20260504225647 50 0 1.0 0.0 0.00 0.00 0.00 73 922.4
20260504225539 50 315 7.0 0.0 0.00 0.00 0.00 73 922.4
20260504225431 50 0 0.0 0.0 0.00 0.00 0.00 73 922.4
20260504225322 50 270 1.0 0.0 0.00 0.00 0.00 73 922.4
20260504225214 50 270 6.0 0.0 0.00 0.00 0.00 73 922.4
20260504225106 50 270 16.0 0.0 0.00 0.00 0.00 73 922.4
20260504224957 50 315 16.0 0.0 0.00 0.00 0.00 73 922.4
20260504224849 50 45 1.0 0.0 0.00 0.00 0.00 73 922.5
20260504224741 50 315 2.0 0.0 0.00 0.00 0.00 73 922.4
20260504224633 50 270 39.0 0.0 0.00 0.00 0.00 73 922.4
20260504224524 50 315 24.0 0.0 0.00 0.00 0.00 73 922.4
20260504224416 50 0 0.0 0.0 0.00 0.00 0.00 73 922.5
20260504224308 50 45 1.0 0.0 0.00 0.00 0.00 73 922.5
20260504224200 50 315 1.0 0.0 0.00 0.00 0.00 73 922.4
20260504224051 50 270 1.0 0.0 0.00 0.00 0.00 73 922.5